Location: Brienzwiler
(46.7508°N, 8.1014°E)
Time: 17:10:09
(UTC+00:00)

Cosmos 2366 rocket - Pass Details

Date: 05 July 2020
Orbit: 954 x 998 km, 82.9° (Epoch: 10 August)

Event Time Altitude Azimuth Distance (km) Brightness Sun altitude
Exits shadow 22:56:31 35° 164° (SSE) 1,553 4.5 -20.1°
Maximum altitude 22:59:15 67° 94° (E) 1,081 4.1 -20.2°
Drops below altitude 10° 23:05:34 10° 14° (NNE) 2,772 7.4 -20.3°
Sets 23:08:06 0° 11° (NNE) 3,721 8.4 -20.4°
